Location: Hawk's Hollow Observatory
(42.9278°N, 85.8301°W)
Time: 15:22:57
(UTC-04:00)

ISS - Visible Passes

Search period start: 26 April 2018 00:00
Search period end: 06 May 2018 00:00
Orbit: 402 x 407 km, 51.6° (Epoch: 27 April)

Date Brightness Start Highest point End Pass type
(mag) Time Alt. Az. Time Alt. Az. Time Alt. Az.
01 May -1.2 05:29:51 10° SSE 05:31:27 13° SE 05:33:03 10° ESE visible
03 May -2.4 05:20:55 15° SSW 05:23:00 29° SE 05:25:54 10° ENE visible
04 May -1.6 04:30:39 16° SE 04:30:51 16° SE 04:32:58 10° E visible
05 May -3.8 05:12:58 26° SW 05:14:39 70° SE 05:17:54 10° ENE visible
